Time,TemperatureF,DewpointF,PressureIn,WindDirection,WindDirectionDegrees,WindSpeedMPH,WindSpeedGustMPH,Humidity,HourlyPrecipIn,Conditions,Clouds,dailyrainin,SoftwareType,DateUTC
2013-10-09 00:09:00,64.4,59.5,30.08,NE,35,0.0,4.0,84,0.00,RA,SKC,0.00,WeatherDisplay:10.37,2013-10-08 22:09:00,
2013-10-09 00:19:00,64.1,60.2,30.09,SSW,203,0.0,7.0,87,0.03,RA,SKC,0.03,WeatherDisplay:10.37,2013-10-08 22:19:00,
2013-10-09 00:29:00,63.9,60.6,30.09,SE,129,0.0,2.0,89,0.01,RA,SKC,0.04,WeatherDisplay:10.37,2013-10-08 22:29:00,
2013-10-09 00:39:00,63.6,60.3,30.08,ESE,110,1.0,3.0,89,0.00,RA,SKC,0.04,WeatherDisplay:10.37,2013-10-08 22:39:00,
2013-10-09 00:49:00,63.7,60.7,30.08,East,88,0.0,2.0,90,0.00,RA,SKC,0.04,WeatherDisplay:10.37,2013-10-08 22:49:00,
2013-10-09 01:00:00,64.0,61.3,30.08,ESE,102,0.0,0.0,91,0.00,,SKC,0.04,WeatherDisplay:10.37,2013-10-08 23:00:00,
2013-10-09 01:09:00,64.2,61.5,30.07,ESE,102,0.0,0.0,91,0.00,CLR,SKC,0.04,WeatherDisplay:10.37,2013-10-08 23:09:00,
2013-10-09 01:19:00,64.3,61.6,30.07,ESE,102,0.0,0.0,91,0.00,CLR,SKC,0.04,WeatherDisplay:10.37,2013-10-08 23:19:00,
2013-10-09 01:29:00,64.3,61.6,30.07,ESE,102,0.0,2.0,91,0.00,CLR,SKC,0.04,WeatherDisplay:10.37,2013-10-08 23:29:00,
2013-10-09 01:40:00,64.1,61.7,30.07,ESE,110,0.0,3.0,92,0.00,CLR,SKC,0.04,WeatherDisplay:10.37,2013-10-08 23:40:00,
2013-10-09 01:50:00,64.1,61.7,30.07,ESE,110,0.0,0.0,92,0.00,CLR,SKC,0.04,WeatherDisplay:10.37,2013-10-08 23:50:00,
2013-10-09 01:59:00,64.1,61.7,30.06,ESE,111,0.0,1.0,92,0.00,CLR,SKC,0.04,WeatherDisplay:10.37,2013-10-08 23:59:00,
2013-10-09 02:09:00,64.1,61.7,30.06,ESE,111,0.0,0.0,92,0.00,CLR,SKC,0.04,WeatherDisplay:10.37,2013-10-09 00:09:00,
2013-10-09 02:20:00,64.1,61.7,30.07,ESE,111,0.0,0.0,92,0.00,CLR,SKC,0.04,WeatherDisplay:10.37,2013-10-09 00:20:00,
2013-10-09 02:29:00,64.2,61.8,30.07,ESE,111,0.0,0.0,92,0.00,CLR,SKC,0.04,WeatherDisplay:10.37,2013-10-09 00:29:00,
2013-10-09 02:39:00,64.4,62.0,30.07,WNW,297,1.0,4.0,92,0.01,RA,SKC,0.05,WeatherDisplay:10.37,2013-10-09 00:39:00,
2013-10-09 02:50:00,64.1,62.0,30.07,SSW,201,0.0,7.0,93,0.00,RA,SKC,0.05,WeatherDisplay:10.37,2013-10-09 00:50:00,
2013-10-09 02:59:00,64.1,62.0,30.07,South,188,1.0,5.0,93,0.00,RA,SKC,0.05,WeatherDisplay:10.37,2013-10-09 00:59:00,
2013-10-09 03:10:00,63.5,61.2,30.07,ENE,64,3.0,7.0,92,0.00,,SKC,0.05,WeatherDisplay:10.37,2013-10-09 01:10:00,
2013-10-09 03:19:00,63.7,61.3,30.07,ENE,69,0.0,5.0,92,0.00,CLR,SKC,0.05,WeatherDisplay:10.37,2013-10-09 01:19:00,
2013-10-09 03:30:00,63.8,61.7,30.06,ENE,70,0.0,0.0,93,0.00,CLR,SKC,0.05,WeatherDisplay:10.37,2013-10-09 01:30:00,
2013-10-09 03:39:00,63.9,61.8,30.06,ENE,70,0.0,0.0,93,0.00,CLR,SKC,0.05,WeatherDisplay:10.37,2013-10-09 01:39:00,
2013-10-09 03:49:00,63.9,61.8,30.06,ENE,70,0.0,0.0,93,0.00,CLR,SKC,0.05,WeatherDisplay:10.37,2013-10-09 01:49:00,
2013-10-09 04:00:00,63.9,61.8,30.06,ENE,70,0.0,0.0,93,0.00,CLR,SKC,0.05,WeatherDisplay:10.37,2013-10-09 02:00:00,
2013-10-09 04:10:00,63.9,61.5,30.06,ENE,70,0.0,0.0,92,0.00,CLR,SKC,0.05,WeatherDisplay:10.37,2013-10-09 02:10:00,
2013-10-09 04:20:00,64.1,61.7,30.05,ENE,70,0.0,0.0,92,0.00,CLR,SKC,0.05,WeatherDisplay:10.37,2013-10-09 02:20:00,
2013-10-09 04:30:00,64.2,61.8,30.06,SW,214,0.0,5.0,92,0.03,RA,SKC,0.08,WeatherDisplay:10.37,2013-10-09 02:30:00,
2013-10-09 04:40:00,64.1,61.4,30.06,South,182,0.0,3.0,91,0.00,RA,SKC,0.08,WeatherDisplay:10.37,2013-10-09 02:40:00,
2013-10-09 04:50:00,63.8,61.1,30.06,South,182,0.0,0.0,91,0.00,RA,SKC,0.08,WeatherDisplay:10.37,2013-10-09 02:50:00,
2013-10-09 04:59:00,63.4,60.7,30.05,South,182,0.0,0.0,91,0.00,,SKC,0.08,WeatherDisplay:10.37,2013-10-09 02:59:00,
2013-10-09 05:10:00,63.3,60.9,30.06,South,179,2.0,5.0,92,0.00,CLR,SKC,0.08,WeatherDisplay:10.37,2013-10-09 03:10:00,
2013-10-09 05:19:00,63.5,61.2,30.05,SSE,154,1.0,5.0,92,0.00,CLR,SKC,0.08,WeatherDisplay:10.37,2013-10-09 03:19:00,
2013-10-09 05:30:00,63.7,61.0,30.05,SSE,154,0.0,5.0,91,0.00,CLR,SKC,0.08,WeatherDisplay:10.37,2013-10-09 03:30:00,
2013-10-09 05:40:00,63.6,60.9,30.05,SSE,154,0.0,0.0,91,0.00,CLR,SKC,0.08,WeatherDisplay:10.37,2013-10-09 03:40:00,
2013-10-09 05:50:00,63.6,60.9,30.05,SSE,154,0.0,0.0,91,0.00,CLR,SKC,0.08,WeatherDisplay:10.37,2013-10-09 03:50:00,
2013-10-09 06:00:00,63.5,60.8,30.05,SSE,154,0.0,0.0,91,0.00,CLR,SKC,0.08,WeatherDisplay:10.37,2013-10-09 04:00:00,
2013-10-09 06:09:00,63.3,60.6,30.05,SSE,154,0.0,0.0,91,0.00,CLR,SKC,0.08,WeatherDisplay:10.37,2013-10-09 04:09:00,
2013-10-09 06:20:00,63.1,60.4,30.05,SSE,154,1.0,3.0,91,0.00,CLR,SKC,0.08,WeatherDisplay:10.37,2013-10-09 04:20:00,
2013-10-09 06:30:00,63.0,60.3,30.05,SSE,154,0.0,3.0,91,0.00,CLR,SKC,0.08,WeatherDisplay:10.37,2013-10-09 04:30:00,
2013-10-09 06:40:00,62.9,60.6,30.05,SSE,154,0.0,0.0,92,0.00,CLR,SKC,0.08,WeatherDisplay:10.37,2013-10-09 04:40:00,
2013-10-09 06:50:00,62.9,60.5,30.05,SSE,154,0.0,0.0,92,0.00,CLR,SKC,0.08,WeatherDisplay:10.37,2013-10-09 04:50:00,
2013-10-09 06:59:00,63.0,60.7,30.05,SSE,154,0.0,1.0,92,0.00,CLR,SKC,0.08,WeatherDisplay:10.37,2013-10-09 04:59:00,
2013-10-09 07:10:00,62.9,60.6,30.05,SSE,154,0.0,4.0,92,0.00,CLR,SKC,0.08,WeatherDisplay:10.37,2013-10-09 05:10:00,
2013-10-09 07:19:00,62.5,59.9,30.05,SSE,164,3.0,8.0,91,0.00,CLR,SKC,0.08,WeatherDisplay:10.37,2013-10-09 05:19:00,
2013-10-09 07:30:00,62.8,59.8,30.04,South,169,0.0,7.0,90,0.00,CLR,SKC,0.08,WeatherDisplay:10.37,2013-10-09 05:30:00,
2013-10-09 07:39:00,62.9,59.6,30.04,South,169,2.0,5.0,89,0.00,CLR,SKC,0.08,WeatherDisplay:10.37,2013-10-09 05:39:00,
2013-10-09 07:50:00,62.9,59.3,30.05,SSE,153,2.0,5.0,88,0.00,CLR,SKC,0.08,WeatherDisplay:10.37,2013-10-09 05:50:00,
2013-10-09 08:00:00,62.9,59.3,30.05,South,184,2.0,6.0,88,0.00,CLR,SKC,0.08,WeatherDisplay:10.37,2013-10-09 06:00:00,
2013-10-09 08:10:00,63.5,60.2,30.06,South,180,6.0,12.0,89,0.00,CLR,SKC,0.08,WeatherDisplay:10.37,2013-10-09 06:10:00,
2013-10-09 08:20:00,63.8,60.2,30.07,South,169,6.0,12.0,88,0.02,RA,SKC,0.10,WeatherDisplay:10.37,2013-10-09 06:20:00,
2013-10-09 08:30:00,63.5,60.5,30.07,SSE,160,1.0,13.0,90,0.10,RA,SKC,0.20,WeatherDisplay:10.37,2013-10-09 06:30:00,
2013-10-09 08:40:00,63.2,60.5,30.07,SE,144,2.0,7.0,91,0.02,RA,SKC,0.22,WeatherDisplay:10.37,2013-10-09 06:40:00,
2013-10-09 08:49:00,63.2,60.8,30.07,SSE,166,1.0,5.0,92,0.00,RA,SKC,0.22,WeatherDisplay:10.37,2013-10-09 06:49:00,
2013-10-09 08:59:00,63.2,60.8,30.06,South,173,3.0,6.0,92,0.00,RA,SKC,0.22,WeatherDisplay:10.37,2013-10-09 06:59:00,
2013-10-09 09:10:00,63.2,60.8,30.06,SSW,195,0.0,3.0,92,0.00,CLR,SKC,0.22,WeatherDisplay:10.37,2013-10-09 07:10:00,
2013-10-09 09:19:00,63.8,61.4,30.07,SSW,195,0.0,4.0,92,0.00,CLR,SKC,0.22,WeatherDisplay:10.37,2013-10-09 07:19:00,
2013-10-09 09:30:00,65.3,62.9,30.07,South,181,0.0,3.0,92,0.00,CLR,SKC,0.22,WeatherDisplay:10.37,2013-10-09 07:30:00,
2013-10-09 09:40:00,66.0,62.0,30.07,South,171,1.0,4.0,87,0.00,CLR,SKC,0.22,WeatherDisplay:10.37,2013-10-09 07:40:00,
2013-10-09 09:50:00,66.7,61.7,30.07,South,170,1.0,4.0,84,0.00,CLR,SKC,0.22,WeatherDisplay:10.37,2013-10-09 07:50:00,
2013-10-09 10:00:00,66.7,62.4,30.07,South,180,3.0,7.0,86,0.00,CLR,SKC,0.22,WeatherDisplay:10.37,2013-10-09 08:00:00,
2013-10-09 10:10:00,66.3,62.0,30.08,South,173,5.0,8.0,86,0.00,CLR,SKC,0.22,WeatherDisplay:10.37,2013-10-09 08:10:00,
2013-10-09 10:20:00,66.5,61.8,30.08,South,176,3.0,8.0,85,0.00,CLR,SKC,0.22,WeatherDisplay:10.37,2013-10-09 08:20:00,
2013-10-09 10:30:00,67.1,62.1,30.08,South,190,3.0,7.0,84,0.00,CLR,SKC,0.22,WeatherDisplay:10.37,2013-10-09 08:30:00,
2013-10-09 10:40:00,67.0,61.7,30.08,South,175,3.0,9.0,83,0.00,CLR,SKC,0.22,WeatherDisplay:10.37,2013-10-09 08:40:00,
2013-10-09 10:50:00,67.8,62.4,30.08,South,191,6.0,9.0,83,0.00,CLR,SKC,0.22,WeatherDisplay:10.37,2013-10-09 08:50:00,
2013-10-09 11:00:00,68.2,61.4,30.08,South,176,6.0,9.0,79,0.00,CLR,SKC,0.22,WeatherDisplay:10.37,2013-10-09 09:00:00,
2013-10-09 11:10:00,68.4,62.0,30.08,South,183,6.0,12.0,80,0.00,CLR,SKC,0.22,WeatherDisplay:10.37,2013-10-09 09:10:00,
2013-10-09 11:20:00,68.4,61.9,30.08,South,175,2.0,8.0,80,0.00,CLR,SKC,0.22,WeatherDisplay:10.37,2013-10-09 09:20:00,
2013-10-09 11:30:00,68.9,62.1,30.08,SE,145,1.0,6.0,79,0.00,CLR,SKC,0.22,WeatherDisplay:10.37,2013-10-09 09:30:00,
2013-10-09 11:40:00,69.5,62.4,30.08,South,188,3.0,7.0,78,0.00,CLR,SKC,0.22,WeatherDisplay:10.37,2013-10-09 09:40:00,
2013-10-09 11:50:00,70.6,62.6,30.08,South,172,2.0,9.0,76,0.00,CLR,SKC,0.22,WeatherDisplay:10.37,2013-10-09 09:50:00,
2013-10-09 11:59:00,70.5,62.2,30.08,South,190,6.0,9.0,75,0.00,CLR,SKC,0.22,WeatherDisplay:10.37,2013-10-09 09:59:00,
2013-10-09 12:10:00,70.2,62.3,30.07,South,188,6.0,10.0,76,0.00,CLR,SKC,0.22,WeatherDisplay:10.37,2013-10-09 10:10:00,
2013-10-09 12:20:00,70.7,60.8,30.07,SSW,194,2.0,7.0,71,0.00,CLR,SKC,0.22,WeatherDisplay:10.37,2013-10-09 10:20:00,
2013-10-09 12:30:00,71.2,61.8,30.07,South,184,2.0,7.0,72,0.01,RA,SKC,0.23,WeatherDisplay:10.37,2013-10-09 10:30:00,
2013-10-09 12:39:00,70.5,61.8,30.07,SSW,200,5.0,9.0,74,0.00,RA,SKC,0.23,WeatherDisplay:10.37,2013-10-09 10:39:00,
2013-10-09 12:50:00,70.6,61.9,30.06,South,188,5.0,9.0,74,0.00,RA,SKC,0.23,WeatherDisplay:10.37,2013-10-09 10:50:00,
2013-10-09 13:00:00,70.3,61.2,30.06,South,179,6.0,12.0,73,0.00,,SKC,0.23,WeatherDisplay:10.37,2013-10-09 11:00:00,
2013-10-09 13:10:00,69.9,62.4,30.06,South,184,3.0,9.0,77,0.00,CLR,SKC,0.23,WeatherDisplay:10.37,2013-10-09 11:10:00,
2013-10-09 13:20:00,69.6,61.3,30.06,South,179,5.0,9.0,75,0.00,CLR,SKC,0.23,WeatherDisplay:10.37,2013-10-09 11:20:00,
2013-10-09 13:30:00,70.0,62.1,30.06,South,171,5.0,9.0,76,0.00,CLR,SKC,0.23,WeatherDisplay:10.37,2013-10-09 11:30:00,
2013-10-09 13:39:00,71.0,62.6,30.06,South,174,1.0,8.0,75,0.00,CLR,SKC,0.23,WeatherDisplay:10.37,2013-10-09 11:39:00,
2013-10-09 13:50:00,71.0,61.9,30.05,SSE,162,5.0,9.0,73,0.00,CLR,SKC,0.23,WeatherDisplay:10.37,2013-10-09 11:50:00,
2013-10-09 13:59:00,71.2,62.1,30.05,South,172,5.0,8.0,73,0.00,CLR,SKC,0.23,WeatherDisplay:10.37,2013-10-09 11:59:00,
2013-10-09 14:10:00,71.1,62.0,30.05,South,187,3.0,9.0,73,0.00,CLR,SKC,0.23,WeatherDisplay:10.37,2013-10-09 12:10:00,
2013-10-09 14:20:00,70.9,62.2,30.05,South,177,5.0,12.0,74,0.00,CLR,SKC,0.23,WeatherDisplay:10.37,2013-10-09 12:20:00,
2013-10-09 14:30:00,71.2,62.5,30.05,SSE,164,3.0,9.0,74,0.00,CLR,SKC,0.23,WeatherDisplay:10.37,2013-10-09 12:30:00,
2013-10-09 14:40:00,71.1,62.0,30.04,South,190,3.0,9.0,73,0.00,CLR,SKC,0.23,WeatherDisplay:10.37,2013-10-09 12:40:00,
2013-10-09 14:50:00,71.1,61.6,30.04,SSW,208,3.0,7.0,72,0.00,CLR,SKC,0.23,WeatherDisplay:10.37,2013-10-09 12:50:00,
2013-10-09 15:00:00,71.7,62.2,30.03,SSW,195,2.0,7.0,72,0.00,CLR,SKC,0.23,WeatherDisplay:10.37,2013-10-09 13:00:00,
2013-10-09 15:10:00,71.3,61.8,30.03,South,190,3.0,8.0,72,0.00,CLR,SKC,0.23,WeatherDisplay:10.37,2013-10-09 13:10:00,
2013-10-09 15:19:00,71.6,61.2,30.03,SW,215,2.0,7.0,70,0.00,CLR,SKC,0.23,WeatherDisplay:10.37,2013-10-09 13:19:00,
2013-10-09 15:30:00,71.9,62.4,30.02,SSW,193,5.0,6.0,72,0.00,CLR,SKC,0.23,WeatherDisplay:10.37,2013-10-09 13:30:00,
2013-10-09 15:40:00,71.2,62.4,30.03,South,185,5.0,10.0,74,0.00,CLR,SKC,0.23,WeatherDisplay:10.37,2013-10-09 13:40:00,
2013-10-09 15:50:00,70.6,62.3,30.03,South,169,3.0,12.0,75,0.00,CLR,SKC,0.23,WeatherDisplay:10.37,2013-10-09 13:50:00,
2013-10-09 16:00:00,70.2,62.7,30.02,South,172,2.0,12.0,77,0.00,CLR,SKC,0.23,WeatherDisplay:10.37,2013-10-09 14:00:00,
2013-10-09 16:10:00,69.2,62.1,30.02,SSE,161,5.0,9.0,78,0.00,CLR,SKC,0.23,WeatherDisplay:10.37,2013-10-09 14:10:00,
2013-10-09 16:20:00,68.9,62.1,30.02,South,169,5.0,8.0,79,0.00,CLR,SKC,0.23,WeatherDisplay:10.37,2013-10-09 14:20:00,
2013-10-09 16:30:00,69.1,62.7,30.02,SSE,164,3.0,10.0,80,0.00,CLR,SKC,0.23,WeatherDisplay:10.37,2013-10-09 14:30:00,
2013-10-09 16:40:00,68.9,62.5,30.02,SSE,164,3.0,8.0,80,0.00,CLR,SKC,0.23,WeatherDisplay:10.37,2013-10-09 14:40:00,
2013-10-09 16:50:00,69.0,62.6,30.01,SSE,161,3.0,8.0,80,0.00,CLR,SKC,0.23,WeatherDisplay:10.37,2013-10-09 14:50:00,
2013-10-09 17:00:00,69.8,62.6,30.01,South,176,3.0,8.0,78,0.00,CLR,SKC,0.23,WeatherDisplay:10.37,2013-10-09 15:00:00,
2013-10-09 17:10:00,69.6,62.4,30.01,South,178,5.0,7.0,78,0.00,CLR,SKC,0.23,WeatherDisplay:10.37,2013-10-09 15:10:00,
2013-10-09 17:20:00,68.8,62.0,30.01,South,179,5.0,9.0,79,0.00,CLR,SKC,0.23,WeatherDisplay:10.37,2013-10-09 15:20:00,
2013-10-09 17:30:00,68.6,62.2,30.01,SSE,154,5.0,8.0,80,0.00,CLR,SKC,0.23,WeatherDisplay:10.37,2013-10-09 15:30:00,
2013-10-09 17:40:00,68.5,61.7,30.01,South,175,2.0,7.0,79,0.00,CLR,SKC,0.23,WeatherDisplay:10.37,2013-10-09 15:40:00,
2013-10-09 17:50:00,68.3,61.5,30.01,SSE,157,3.0,7.0,79,0.00,CLR,SKC,0.23,WeatherDisplay:10.37,2013-10-09 15:50:00,
2013-10-09 17:59:00,67.9,61.5,30.00,SSE,154,0.0,8.0,80,0.00,CLR,SKC,0.23,WeatherDisplay:10.37,2013-10-09 15:59:00,
2013-10-09 18:10:00,67.8,61.8,30.01,SE,139,1.0,5.0,81,0.00,CLR,SKC,0.23,WeatherDisplay:10.37,2013-10-09 16:10:00,
2013-10-09 18:20:00,67.7,61.7,30.01,SE,138,1.0,6.0,81,0.00,CLR,SKC,0.23,WeatherDisplay:10.37,2013-10-09 16:20:00,
2013-10-09 18:30:00,67.1,62.4,30.01,SE,145,0.0,9.0,85,0.03,RA,SKC,0.26,WeatherDisplay:10.37,2013-10-09 16:30:00,
2013-10-09 18:39:00,66.4,62.4,30.02,South,181,2.0,7.0,87,0.02,RA,SKC,0.28,WeatherDisplay:10.37,2013-10-09 16:39:00,
2013-10-09 18:50:00,66.0,62.6,30.02,SSW,193,0.0,3.0,89,0.08,RA,SKC,0.36,WeatherDisplay:10.37,2013-10-09 16:50:00,
2013-10-09 18:59:00,65.3,62.6,30.02,WSW,253,1.0,5.0,91,0.04,RA,SKC,0.40,WeatherDisplay:10.37,2013-10-09 16:59:00,
2013-10-09 19:10:00,65.2,62.8,30.02,SW,229,0.0,4.0,92,0.02,RA,SKC,0.42,WeatherDisplay:10.37,2013-10-09 17:10:00,
2013-10-09 19:20:00,65.0,62.6,30.03,SSE,168,3.0,7.0,92,0.00,RA,SKC,0.42,WeatherDisplay:10.37,2013-10-09 17:20:00,
2013-10-09 19:30:00,64.6,62.5,30.03,SSE,156,6.0,10.0,93,0.00,RA,SKC,0.42,WeatherDisplay:10.37,2013-10-09 17:30:00,
2013-10-09 19:40:00,63.2,60.5,30.03,SSE,151,2.0,9.0,91,0.00,,SKC,0.42,WeatherDisplay:10.37,2013-10-09 17:40:00,
2013-10-09 19:50:00,63.0,60.3,30.02,SE,145,2.0,8.0,91,0.00,CLR,SKC,0.42,WeatherDisplay:10.37,2013-10-09 17:50:00,
2013-10-09 19:59:00,63.0,60.6,30.02,SSE,160,1.0,5.0,92,0.00,CLR,SKC,0.42,WeatherDisplay:10.37,2013-10-09 17:59:00,
2013-10-09 20:10:00,63.0,60.4,30.02,SSE,155,2.0,5.0,91,0.00,CLR,SKC,0.42,WeatherDisplay:10.37,2013-10-09 18:10:00,
2013-10-09 20:20:00,63.2,60.5,30.02,SSE,147,2.0,5.0,91,0.00,CLR,SKC,0.42,WeatherDisplay:10.37,2013-10-09 18:20:00,
2013-10-09 20:30:00,63.5,60.5,30.02,SSE,163,0.0,4.0,90,0.00,CLR,SKC,0.42,WeatherDisplay:10.37,2013-10-09 18:30:00,
2013-10-09 20:40:00,63.6,60.6,30.02,South,173,2.0,6.0,90,0.00,CLR,SKC,0.42,WeatherDisplay:10.37,2013-10-09 18:40:00,
2013-10-09 20:50:00,63.8,60.5,30.02,SSE,164,0.0,7.0,89,0.00,CLR,SKC,0.42,WeatherDisplay:10.37,2013-10-09 18:50:00,
2013-10-09 21:00:00,64.3,60.7,30.02,SE,142,0.0,9.0,88,0.00,CLR,SKC,0.42,WeatherDisplay:10.37,2013-10-09 19:00:00,
2013-10-09 21:10:00,64.3,60.3,30.03,South,189,0.0,4.0,87,0.00,CLR,SKC,0.42,WeatherDisplay:10.37,2013-10-09 19:10:00,
2013-10-09 21:20:00,64.2,60.6,30.03,South,187,1.0,5.0,88,0.00,CLR,SKC,0.42,WeatherDisplay:10.37,2013-10-09 19:20:00,
2013-10-09 21:30:00,64.0,60.4,30.03,South,186,1.0,3.0,88,0.00,CLR,SKC,0.42,WeatherDisplay:10.37,2013-10-09 19:30:00,
2013-10-09 21:40:00,63.7,60.4,30.03,South,186,0.0,3.0,89,0.00,CLR,SKC,0.42,WeatherDisplay:10.37,2013-10-09 19:40:00,
2013-10-09 21:50:00,63.7,60.4,30.03,South,186,0.0,4.0,89,0.00,CLR,SKC,0.42,WeatherDisplay:10.37,2013-10-09 19:50:00,
2013-10-09 22:00:00,63.5,60.2,30.03,South,186,0.0,4.0,89,0.00,CLR,SKC,0.42,WeatherDisplay:10.37,2013-10-09 20:00:00,
2013-10-09 22:10:00,63.2,60.2,30.03,South,186,0.0,5.0,90,0.00,CLR,SKC,0.42,WeatherDisplay:10.37,2013-10-09 20:10:00,
2013-10-09 22:20:00,63.2,60.2,30.03,South,180,0.0,4.0,90,0.00,CLR,SKC,0.42,WeatherDisplay:10.37,2013-10-09 20:20:00,
2013-10-09 22:30:00,63.3,60.3,30.03,SSE,164,0.0,6.0,90,0.00,CLR,SKC,0.42,WeatherDisplay:10.37,2013-10-09 20:30:00,
2013-10-09 22:40:00,63.2,60.2,30.03,SSE,163,0.0,0.0,90,0.00,CLR,SKC,0.42,WeatherDisplay:10.37,2013-10-09 20:40:00,
2013-10-09 22:50:00,63.3,60.3,30.03,SSE,163,0.0,4.0,90,0.00,CLR,SKC,0.42,WeatherDisplay:10.37,2013-10-09 20:50:00,
2013-10-09 23:00:00,63.5,60.6,30.03,SSE,163,0.0,4.0,90,0.00,CLR,SKC,0.42,WeatherDisplay:10.37,2013-10-09 21:00:00,
2013-10-09 23:10:00,63.9,60.9,30.03,SSE,163,3.0,6.0,90,0.00,CLR,SKC,0.42,WeatherDisplay:10.37,2013-10-09 21:10:00,
2013-10-09 23:20:00,63.9,60.9,30.03,SSE,161,1.0,4.0,90,0.00,CLR,SKC,0.42,WeatherDisplay:10.37,2013-10-09 21:20:00,
2013-10-09 23:30:00,63.9,60.9,30.03,SSE,161,0.0,4.0,90,0.00,CLR,SKC,0.42,WeatherDisplay:10.37,2013-10-09 21:30:00,
2013-10-09 23:40:00,63.8,60.8,30.03,SSE,161,0.0,0.0,90,0.00,CLR,SKC,0.42,WeatherDisplay:10.37,2013-10-09 21:40:00,
2013-10-09 23:50:00,63.7,60.7,30.03,SSE,161,0.0,0.0,90,0.00,CLR,SKC,0.42,WeatherDisplay:10.37,2013-10-09 21:50:00,